Location: Unspecified
(38.9820°N, 94.4650°W)
Time: 02:25:46
(UTC-05:00)

CZ-3 Stage 3 - Visible Passes

Search period start: 20 September 2017 00:00
Search period end: 30 September 2017 00:00
Orbit: 426 x 34772 km, 31.0° (Epoch: 19 September)

Date Brightness Start Highest point End Pass type
(mag) Time Alt. Az. Time Alt. Az. Time Alt. Az.
21 Sep 7.6 14:01:52 10° W 14:43:19 46° SW 20:08:56 10° SW visible
24 Sep 7.6 13:52:46 10° W 14:33:53 45° SW 19:54:27 10° SW visible
26 Sep 4.3 06:38:14 10° SW 06:42:04 36° SSE 06:56:05 10° E visible
27 Sep 7.6 13:43:40 10° W 14:24:28 44° SW 19:39:57 10° SW visible
29 Sep 4.3 06:29:00 10° SW 06:32:46 36° SSE 06:46:36 10° E visible
